Dewpoint
26 26 25 26 25 26 30 30 30 35 37 40 41 44 45 48 47 49 51 52 53 54 56 57 58 59 61
26 25 26 27 27 26 25 24 28 31 34 36 38 42 45 45 47 45 47 48 51 54 55 55 56 57 60
27 28 28 27 27 28 27 26 26 34 34 35 38 40 41 44 45 45 46 48 49 52 54 55 55 56 57
29 28 28 27 26 26 26 29 30 29 33 35 37 40 40 41 43 44 46 47 50 52 52 52 53 54 55
29 27 24 24 24 27 27 28 31 31 35 34 35 37 38 38 39 42 43 45 49 49 49 50 51 51 54
28 25 23 24 25 26 29 29 27 31 31 32 33 33 35 36 38 42 43 45 46 48 48 49 48 50 51
25 25 24 26 28 29 30 29 28 29 32 31 34 35 35 35 37 38 43 45 45 46 47 47 46 47 50
23 26 29 29 27 27 29 31 32 32 33 32 34 33 35 36 40 40 42 44 44 45 45 46 45 46 48
28 27 26 27 28 29 29 29 28 30 32 32 33 32 35 33 36 38 40 40 41 42 43 43 45 46 47
22 22 23 25 27 27 29 28 27 27 30 31 30 32 28 36 36 36 37 37 40 46 46 45 46 46 45
21 23 23 25 26 27 28 28 27 26 29 32 30 30 29 28 32 35 34 33 40 44 46 46 45 44 43
22 23 23 24 27 27 28 28 29 29 30 33 30 28 27 26 26 33 33 32 37 39 40 42 43 43 43
23 23 24 25 27 27 28 29 29 31 33 32 30 28 28 26 26 32 31 31 34 36 36 36 37 38 39
24 24 25 24 25 26 27 28 28 30 33 31 30 29 27 28 30 32 32 30 31 33 34 34 36 36 37
23 23 23 24 25 26 27 28 28 27 27 29 30 30 30 30 30 31 30 29 31 32 32 30 33 35 35
23 23 24 24 24 26 28 28 26 25 24 24 25 27 28 28 30 27 28 28 30 31 32 29 29 35 36
23 23 23 23 24 27 27 26 25 25 23 22 21 22 24 20 25 30 26 28 28 28 28 27 26 30 36
Lifted_Index
13 12 12 11 10 10 9 9 9 9 9 8 7 6 5 4 4 4 4 3 2 2 2 1 1 0 -0
12 12 11 10 10 10 10 9 9 9 9 9 8 7 5 4 4 4 4 3 2 2 2 1 1 1 0
11 11 10 10 10 9 9 10 10 10 10 9 8 7 6 6 5 5 4 3 2 1 2 2 2 1 1
11 10 10 9 9 8 8 9 9 10 10 9 9 8 8 7 6 6 5 4 2 1 2 2 2 2 2
10 10 10 9 8 8 7 8 9 9 9 9 9 9 9 9 8 7 6 4 3 2 2 2 3 3 2
11 10 10 9 8 8 7 7 8 8 8 9 10 10 9 9 9 8 7 5 4 3 2 2 3 3 3
11 11 10 10 9 8 8 7 7 7 8 9 10 10 10 10 10 8 7 6 5 4 3 3 3 4 4
11 11 11 10 10 9 8 8 7 7 8 8 9 10 11 10 10 8 7 6 6 5 4 3 3 4 4
11 11 11 11 11 10 9 8 7 7 7 8 9 10 10 10 9 8 7 6 5 4 4 4 3 3 3
12 12 12 12 11 11 10 9 8 8 8 9 10 10 9 9 8 7 7 6 5 4 3 3 3 3 2
12 12 12 11 11 11 11 10 10 10 10 10 10 10 9 8 7 7 6 5 4 3 3 3 3 2 2
12 12 11 11 12 12 12 12 12 12 11 11 11 11 9 8 7 7 7 6 5 4 3 3 3 3 2
12 12 12 13 13 13 13 13 13 13 13 13 12 11 10 9 8 8 8 7 6 5 5 5 4 4 4
14 14 14 14 14 14 14 14 14 14 14 14 14 13 12 11 10 10 9 8 7 6 6 6 7 7 7
15 15 15 15 15 15 15 15 15 14 14 15 15 15 14 13 12 11 10 9 8 8 7 7 8 9 9
16 16 16 16 16 16 16 15 15 15 15 15 16 15 15 14 13 12 11 10 10 9 9 9 10 11 11
17 17 17 16 16 16 16 15 15 15 15 15 16 15 14 13 13 13 12 11 10 10 10 10 10 12 13